Hourly Weather Holo

Today, 12 April, Monday

Time Temperature Precipitation Wind Pressure Humidity
00:00 +26°C° 0.5 mm 6 mps 738 mmHg 85%
01:00 +26°C° 0.5 mm 5 mps 737 mmHg 85%
02:00 +26°C° 0 mm 5 mps 737 mmHg 84%
03:00 +25°C° 0 mm 4 mps 737 mmHg 85%
04:00 +25°C° 0 mm 4 mps 737 mmHg 86%
05:00 +25°C° 0 mm 4 mps 737 mmHg 87%
06:00 +26°C° 0 mm 3 mps 737 mmHg 81%
07:00 +27°C° 0 mm 3 mps 738 mmHg 76%
08:00 +28°C° 0 mm 3 mps 738 mmHg 71%
09:00 +29°C° 0 mm 3 mps 738 mmHg 67%
10:00 +32°C° 0 mm 4 mps 738 mmHg 62%
11:00 +33°C° 0 mm 4 mps 737 mmHg 58%
12:00 +32°C° 0.2 mm 5 mps 737 mmHg 60%
13:00 +32°C° 0.2 mm 5 mps 736 mmHg 62%
14:00 +32°C° 0.2 mm 5 mps 735 mmHg 64%
15:00 +30°C° 0.2 mm 5 mps 735 mmHg 66%
16:00 +30°C° 0.2 mm 5 mps 735 mmHg 68%
17:00 +29°C° 0.2 mm 5 mps 735 mmHg 71%
18:00 +28°C° 0.5 mm 5 mps 736 mmHg 75%
19:00 +28°C° 0.5 mm 5 mps 736 mmHg 79%
20:00 +27°C° 0.5 mm 5 mps 737 mmHg 83%
21:00 +26°C° 0 mm 5 mps 737 mmHg 85%
22:00 +26°C° 0 mm 5 mps 737 mmHg 87%
23:00 +26°C° 0 mm 4 mps 737 mmHg 88%

Tomorrow, 13 April, Tuesday

Time Temperature Precipitation Wind Pressure Humidity
00:00 +26°C° 0.3 mm 4 mps 736 mmHg 89%
01:00 +26°C° 0.3 mm 4 mps 736 mmHg 89%
02:00 +26°C° 0.3 mm 4 mps 735 mmHg 89%
03:00 +26°C° 0.1 mm 4 mps 735 mmHg 89%
04:00 +26°C° 0.1 mm 4 mps 735 mmHg 89%
05:00 +26°C° 0.1 mm 4 mps 735 mmHg 89%
06:00 +27°C° 0 mm 4 mps 736 mmHg 84%
07:00 +28°C° 0 mm 4 mps 736 mmHg 79%
08:00 +29°C° 0 mm 4 mps 737 mmHg 74%
09:00 +30°C° 0 mm 3 mps 736 mmHg 69%
10:00 +31°C° 0 mm 3 mps 736 mmHg 64%
11:00 +32°C° 0 mm 2 mps 736 mmHg 59%
12:00 +33°C° 0 mm 3 mps 735 mmHg 56%
13:00 +33°C° 0 mm 4 mps 735 mmHg 53%
14:00 +33°C° 0 mm 4 mps 734 mmHg 51%
15:00 +32°C° 0 mm 5 mps 734 mmHg 57%
16:00 +30°C° 0 mm 5 mps 734 mmHg 63%
17:00 +29°C° 0 mm 5 mps 734 mmHg 69%
18:00 +29°C° 0.5 mm 5 mps 735 mmHg 73%
19:00 +28°C° 0.5 mm 5 mps 735 mmHg 77%
20:00 +27°C° 0.5 mm 5 mps 736 mmHg 81%
21:00 +27°C° 0.4 mm 5 mps 736 mmHg 82%
22:00 +27°C° 0.4 mm 5 mps 736 mmHg 83%
23:00 +26°C° 0.4 mm 4 mps 736 mmHg 85%

Day after tomorrow, 14 April, Wednesday

Time Temperature Precipitation Wind Pressure Humidity
00:00 +26°C° 0.1 mm 4 mps 736 mmHg 85%
01:00 +26°C° 0.1 mm 4 mps 735 mmHg 86%
02:00 +26°C° 0.1 mm 3 mps 735 mmHg 87%
03:00 +26°C° 0 mm 3 mps 735 mmHg 87%
04:00 +26°C° 0 mm 3 mps 735 mmHg 88%
05:00 +25°C° 0 mm 3 mps 735 mmHg 88%
06:00 +27°C° 0 mm 3 mps 735 mmHg 83%
07:00 +28°C° 0 mm 3 mps 736 mmHg 77%
08:00 +29°C° 0 mm 3 mps 737 mmHg 72%
09:00 +30°C° 0 mm 2 mps 736 mmHg 69%
10:00 +30°C° 0 mm 2 mps 736 mmHg 66%
11:00 +31°C° 0 mm 2 mps 736 mmHg 63%
12:00 +31°C° 0.1 mm 3 mps 735 mmHg 63%
13:00 +31°C° 0.1 mm 3 mps 735 mmHg 62%
14:00 +32°C° 0.1 mm 4 mps 734 mmHg 61%
15:00 +32°C° 0.2 mm 4 mps 734 mmHg 64%
16:00 +30°C° 0.2 mm 4 mps 734 mmHg 68%
17:00 +29°C° 0.2 mm 4 mps 734 mmHg 71%
18:00 +28°C° 0.3 mm 4 mps 735 mmHg 75%
19:00 +28°C° 0.3 mm 5 mps 735 mmHg 79%
20:00 +27°C° 0.3 mm 5 mps 735 mmHg 83%
21:00 +27°C° 0 mm 5 mps 736 mmHg 84%
22:00 +26°C° 0 mm 4 mps 736 mmHg 85%
23:00 +26°C° 0 mm 4 mps 736 mmHg 86%

15 April, Thursday

Time Temperature Precipitation Wind Pressure Humidity
00:00 +26°C° 0.1 mm 4 mps 735 mmHg 87%
01:00 +26°C° 0.1 mm 4 mps 735 mmHg 88%
02:00 +26°C° 0.1 mm 3 mps 735 mmHg 89%
03:00 +26°C° 0 mm 3 mps 735 mmHg 89%
04:00 +26°C° 0 mm 4 mps 735 mmHg 89%
05:00 +26°C° 0 mm 4 mps 735 mmHg 90%
06:00 +26°C° 0 mm 4 mps 735 mmHg 86%
07:00 +27°C° 0 mm 3 mps 736 mmHg 82%
08:00 +28°C° 0 mm 3 mps 736 mmHg 78%
09:00 +29°C° 0.1 mm 3 mps 736 mmHg 73%
10:00 +30°C° 0.1 mm 2 mps 736 mmHg 69%
11:00 +31°C° 0.1 mm 2 mps 736 mmHg 64%
12:00 +30°C° 0.4 mm 2 mps 735 mmHg 65%
13:00 +30°C° 0.4 mm 3 mps 735 mmHg 67%
14:00 +30°C° 0.4 mm 3 mps 734 mmHg 69%
15:00 +29°C° 0.3 mm 3 mps 734 mmHg 72%
16:00 +29°C° 0.3 mm 3 mps 734 mmHg 75%
17:00 +29°C° 0.3 mm 3 mps 734 mmHg 78%
18:00 +28°C° 0.1 mm 4 mps 735 mmHg 80%
19:00 +27°C° 0.1 mm 4 mps 735 mmHg 82%
20:00 +27°C° 0.1 mm 4 mps 736 mmHg 85%
21:00 +26°C° 0.1 mm 4 mps 736 mmHg 86%
22:00 +26°C° 0.1 mm 4 mps 736 mmHg 87%
23:00 +26°C° 0.1 mm 4 mps 736 mmHg 88%

16 April, Friday

Time Temperature Precipitation Wind Pressure Humidity
00:00 +26°C° 0 mm 4 mps 736 mmHg 89%
01:00 +26°C° 0 mm 4 mps 735 mmHg 89%
02:00 +26°C° 0 mm 4 mps 735 mmHg 90%
03:00 +26°C° 0 mm 4 mps 735 mmHg 90%
04:00 +26°C° 0 mm 4 mps 735 mmHg 90%
05:00 +26°C° 0 mm 4 mps 735 mmHg 89%
06:00 +27°C° 0 mm 4 mps 736 mmHg 85%
07:00 +27°C° 0 mm 3 mps 736 mmHg 81%
08:00 +28°C° 0 mm 3 mps 737 mmHg 77%
09:00 +29°C° 0.1 mm 3 mps 737 mmHg 71%
10:00 +31°C° 0.1 mm 2 mps 736 mmHg 65%
11:00 +32°C° 0.1 mm 2 mps 736 mmHg 59%
12:00 +33°C° 0.2 mm 3 mps 736 mmHg 59%
13:00 +33°C° 0.2 mm 3 mps 735 mmHg 59%
14:00 +33°C° 0.2 mm 4 mps 735 mmHg 59%
15:00 +32°C° 0.4 mm 5 mps 735 mmHg 64%
16:00 +30°C° 0.4 mm 5 mps 735 mmHg 68%
17:00 +29°C° 0.4 mm 6 mps 735 mmHg 73%
18:00 +28°C° 0.5 mm 6 mps 735 mmHg 77%
19:00 +27°C° 0.5 mm 6 mps 736 mmHg 81%
20:00 +26°C° 0.5 mm 6 mps 736 mmHg 85%
21:00 +26°C° 0.4 mm 6 mps 737 mmHg 85%
22:00 +26°C° 0.4 mm 5 mps 737 mmHg 86%
23:00 +26°C° 0.4 mm 5 mps 737 mmHg 87%

17 April, Saturday

Time Temperature Precipitation Wind Pressure Humidity
00:00 +26°C° 0.8 mm 5 mps 736 mmHg 87%
01:00 +26°C° 0.8 mm 6 mps 736 mmHg 87%
02:00 +26°C° 0.8 mm 6 mps 736 mmHg 87%
03:00 +26°C° 0.9 mm 6 mps 736 mmHg 87%
04:00 +26°C° 0.9 mm 6 mps 736 mmHg 87%
05:00 +26°C° 0.9 mm 5 mps 736 mmHg 87%
06:00 +27°C° 0.3 mm 5 mps 736 mmHg 82%
07:00 +27°C° 0.3 mm 5 mps 737 mmHg 78%
08:00 +28°C° 0.3 mm 5 mps 737 mmHg 73%
09:00 +29°C° 0 mm 5 mps 737 mmHg 68%
10:00 +30°C° 0 mm 4 mps 737 mmHg 63%
11:00 +33°C° 0 mm 4 mps 737 mmHg 57%
12:00 +32°C° 0 mm 5 mps 736 mmHg 59%
13:00 +32°C° 0 mm 6 mps 736 mmHg 61%
14:00 +32°C° 0 mm 7 mps 735 mmHg 63%
15:00 +30°C° 0.1 mm 7 mps 735 mmHg 66%
16:00 +29°C° 0.1 mm 7 mps 736 mmHg 69%
17:00 +28°C° 0.1 mm 7 mps 736 mmHg 72%
18:00 +28°C° 0.1 mm 6 mps 736 mmHg 76%
19:00 +27°C° 0.1 mm 6 mps 737 mmHg 80%
20:00 +26°C° 0.1 mm 6 mps 737 mmHg 83%
21:00 +26°C° 0.1 mm 6 mps 737 mmHg 84%
22:00 +26°C° 0.1 mm 6 mps 737 mmHg 85%
23:00 +26°C° 0.1 mm 5 mps 737 mmHg 85%
Show more